Météo par heure à Weifang

Ce jour, 1 Octobre, Jeudi

Heure Température Précipitation Vent Pression Humidité
00:00 +16°C° 0 mm 2 m/s 758 mmHg 57%
01:00 +16°C° 0 mm 2 m/s 757 mmHg 58%
02:00 +16°C° 0 mm 1 m/s 757 mmHg 60%
03:00 +15°C° 0 mm 2 m/s 757 mmHg 60%
04:00 +15°C° 0 mm 2 m/s 757 mmHg 61%
05:00 +15°C° 0 mm 2 m/s 757 mmHg 61%
06:00 +16°C° 0 mm 3 m/s 757 mmHg 60%
07:00 +17°C° 0 mm 3 m/s 757 mmHg 59%
08:00 +18°C° 0 mm 4 m/s 757 mmHg 58%
09:00 +20°C° 0 mm 4 m/s 757 mmHg 56%
10:00 +22°C° 0 mm 4 m/s 756 mmHg 55%
11:00 +23°C° 0 mm 4 m/s 756 mmHg 53%
12:00 +25°C° 0.1 mm 4 m/s 756 mmHg 53%
13:00 +26°C° 0.1 mm 4 m/s 755 mmHg 53%
14:00 +27°C° 0.1 mm 4 m/s 755 mmHg 54%
15:00 +26°C° 0.3 mm 3 m/s 755 mmHg 58%
16:00 +25°C° 0.3 mm 3 m/s 755 mmHg 62%
17:00 +24°C° 0.3 mm 3 m/s 755 mmHg 66%
18:00 +23°C° 0.3 mm 2 m/s 755 mmHg 70%
19:00 +23°C° 0.3 mm 2 m/s 755 mmHg 73%
20:00 +21°C° 0.3 mm 2 m/s 756 mmHg 77%
21:00 +21°C° 0.2 mm 2 m/s 756 mmHg 77%
22:00 +20°C° 0.2 mm 2 m/s 756 mmHg 77%
23:00 +20°C° 0.2 mm 2 m/s 756 mmHg 77%

Demain, 2 Octobre, Vendredi

Heure Température Précipitation Vent Pression Humidité
00:00 +20°C° 0.4 mm 2 m/s 756 mmHg 77%
01:00 +20°C° 0.4 mm 2 m/s 756 mmHg 78%
02:00 +20°C° 0.4 mm 2 m/s 756 mmHg 79%
03:00 +19°C° 0 mm 2 m/s 756 mmHg 83%
04:00 +19°C° 0 mm 2 m/s 756 mmHg 87%
05:00 +18°C° 0 mm 3 m/s 757 mmHg 91%
06:00 +19°C° 0 mm 3 m/s 757 mmHg 85%
07:00 +19°C° 0 mm 3 m/s 758 mmHg 78%
08:00 +20°C° 0 mm 4 m/s 759 mmHg 71%
09:00 +21°C° 0 mm 4 m/s 759 mmHg 63%
10:00 +22°C° 0 mm 4 m/s 759 mmHg 55%
11:00 +23°C° 0 mm 4 m/s 759 mmHg 48%
12:00 +23°C° 0 mm 4 m/s 759 mmHg 42%
13:00 +23°C° 0 mm 4 m/s 759 mmHg 37%
14:00 +25°C° 0 mm 3 m/s 759 mmHg 31%
15:00 +24°C° 0 mm 3 m/s 759 mmHg 35%
16:00 +22°C° 0 mm 3 m/s 759 mmHg 40%
17:00 +21°C° 0 mm 2 m/s 759 mmHg 44%
18:00 +20°C° 0 mm 2 m/s 759 mmHg 47%
19:00 +19°C° 0 mm 2 m/s 760 mmHg 50%
20:00 +19°C° 0 mm 1 m/s 760 mmHg 53%
21:00 +19°C° 0 mm 1 m/s 760 mmHg 52%
22:00 +19°C° 0 mm 1 m/s 760 mmHg 52%
23:00 +19°C° 0 mm 1 m/s 761 mmHg 51%

Après-demain, 3 Octobre, Samedi

Heure Température Précipitation Vent Pression Humidité
00:00 +19°C° 0 mm 1 m/s 760 mmHg 52%
01:00 +17°C° 0 mm 2 m/s 760 mmHg 52%
02:00 +17°C° 0 mm 2 m/s 760 mmHg 53%
03:00 +16°C° 0.2 mm 2 m/s 760 mmHg 58%
04:00 +15°C° 0.2 mm 2 m/s 760 mmHg 63%
05:00 +14°C° 0.2 mm 2 m/s 761 mmHg 68%
06:00 +14°C° 0.4 mm 2 m/s 761 mmHg 73%
07:00 +14°C° 0.4 mm 2 m/s 761 mmHg 78%
08:00 +13°C° 0.4 mm 2 m/s 761 mmHg 83%
09:00 +13°C° 0.8 mm 2 m/s 761 mmHg 84%
10:00 +13°C° 0.8 mm 2 m/s 761 mmHg 85%
11:00 +12°C° 0.8 mm 3 m/s 761 mmHg 86%
12:00 +13°C° 0.1 mm 3 m/s 760 mmHg 85%
13:00 +14°C° 0.1 mm 2 m/s 760 mmHg 84%
14:00 +14°C° 0.1 mm 2 m/s 760 mmHg 82%
15:00 +14°C° 0 mm 2 m/s 760 mmHg 81%
16:00 +14°C° 0 mm 2 m/s 760 mmHg 79%
17:00 +15°C° 0 mm 1 m/s 759 mmHg 78%
18:00 +14°C° 0 mm 1 m/s 760 mmHg 80%
19:00 +13°C° 0 mm 1 m/s 760 mmHg 82%
20:00 +12°C° 0 mm 1 m/s 760 mmHg 85%
21:00 +12°C° 0 mm 1 m/s 760 mmHg 84%
22:00 +12°C° 0 mm 2 m/s 760 mmHg 84%
23:00 +12°C° 0 mm 2 m/s 760 mmHg 83%

4 Octobre, Dimanche

Heure Température Précipitation Vent Pression Humidité
00:00 +12°C° 0 mm 2 m/s 760 mmHg 84%
01:00 +12°C° 0 mm 2 m/s 760 mmHg 85%
02:00 +12°C° 0 mm 2 m/s 760 mmHg 86%
03:00 +11°C° 0 mm 3 m/s 760 mmHg 86%
04:00 +11°C° 0 mm 4 m/s 760 mmHg 87%
05:00 +10°C° 0 mm 5 m/s 760 mmHg 88%
06:00 +12°C° 0 mm 5 m/s 761 mmHg 76%
07:00 +13°C° 0 mm 5 m/s 761 mmHg 63%
08:00 +13°C° 0 mm 6 m/s 762 mmHg 51%
09:00 +14°C° 0 mm 6 m/s 762 mmHg 46%
10:00 +15°C° 0 mm 6 m/s 762 mmHg 40%
11:00 +16°C° 0 mm 7 m/s 762 mmHg 35%
12:00 +16°C° 0 mm 6 m/s 761 mmHg 34%
13:00 +16°C° 0 mm 6 m/s 761 mmHg 33%
14:00 +16°C° 0 mm 6 m/s 761 mmHg 33%
15:00 +16°C° 0 mm 5 m/s 761 mmHg 36%
16:00 +15°C° 0 mm 5 m/s 761 mmHg 39%
17:00 +15°C° 0 mm 4 m/s 761 mmHg 42%
18:00 +14°C° 0 mm 3 m/s 762 mmHg 43%
19:00 +13°C° 0 mm 3 m/s 762 mmHg 44%
20:00 +12°C° 0 mm 3 m/s 762 mmHg 45%
21:00 +11°C° 0 mm 3 m/s 762 mmHg 44%
22:00 +11°C° 0 mm 3 m/s 763 mmHg 43%
23:00 +11°C° 0 mm 3 m/s 763 mmHg 43%

5 Octobre, Lundi

Heure Température Précipitation Vent Pression Humidité
00:00 +11°C° 0 mm 3 m/s 763 mmHg 43%
01:00 +10°C° 0 mm 3 m/s 763 mmHg 43%
02:00 +10°C° 0 mm 4 m/s 763 mmHg 43%
03:00 +10°C° 0 mm 3 m/s 763 mmHg 44%
04:00 +10°C° 0 mm 3 m/s 763 mmHg 45%
05:00 +9°C° 0 mm 3 m/s 763 mmHg 46%
06:00 +10°C° 0 mm 4 m/s 764 mmHg 48%
07:00 +12°C° 0 mm 4 m/s 764 mmHg 51%
08:00 +13°C° 0 mm 4 m/s 764 mmHg 53%
09:00 +14°C° 0 mm 4 m/s 764 mmHg 48%
10:00 +17°C° 0 mm 4 m/s 764 mmHg 44%
11:00 +19°C° 0 mm 4 m/s 764 mmHg 39%
12:00 +19°C° 0 mm 4 m/s 763 mmHg 37%
13:00 +20°C° 0 mm 4 m/s 763 mmHg 35%
14:00 +20°C° 0 mm 4 m/s 763 mmHg 33%
15:00 +19°C° 0 mm 3 m/s 763 mmHg 37%
16:00 +19°C° 0 mm 2 m/s 763 mmHg 41%
17:00 +18°C° 0 mm 2 m/s 763 mmHg 45%
18:00 +16°C° 0 mm 2 m/s 763 mmHg 48%
19:00 +15°C° 0 mm 1 m/s 763 mmHg 51%
20:00 +14°C° 0 mm 1 m/s 764 mmHg 54%
21:00 +13°C° 0 mm 1 m/s 764 mmHg 56%
22:00 +13°C° 0 mm 1 m/s 764 mmHg 57%
23:00 +13°C° 0 mm 1 m/s 764 mmHg 58%

6 Octobre, Mardi

Heure Température Précipitation Vent Pression Humidité
00:00 +12°C° 0 mm 1 m/s 764 mmHg 59%
01:00 +12°C° 0 mm 1 m/s 764 mmHg 60%
02:00 +12°C° 0 mm 1 m/s 763 mmHg 61%
03:00 +12°C° 0 mm 2 m/s 764 mmHg 60%
04:00 +10°C° 0 mm 2 m/s 764 mmHg 60%
05:00 +10°C° 0 mm 2 m/s 764 mmHg 59%
06:00 +12°C° 0 mm 2 m/s 764 mmHg 57%
07:00 +14°C° 0 mm 2 m/s 764 mmHg 55%
08:00 +15°C° 0 mm 2 m/s 764 mmHg 53%
09:00 +16°C° 0 mm 2 m/s 764 mmHg 46%
10:00 +18°C° 0 mm 2 m/s 764 mmHg 40%
11:00 +20°C° 0 mm 2 m/s 764 mmHg 33%
12:00 +21°C° 0 mm 2 m/s 764 mmHg 31%
13:00 +21°C° 0 mm 2 m/s 764 mmHg 29%
14:00 +23°C° 0 mm 2 m/s 764 mmHg 27%
15:00 +21°C° 0 mm 2 m/s 763 mmHg 32%
16:00 +20°C° 0 mm 2 m/s 763 mmHg 37%
17:00 +19°C° 0 mm 2 m/s 763 mmHg 41%
18:00 +18°C° 0 mm 2 m/s 764 mmHg 42%
19:00 +17°C° 0 mm 2 m/s 764 mmHg 44%
20:00 +16°C° 0 mm 3 m/s 764 mmHg 45%
21:00 +16°C° 0 mm 3 m/s 765 mmHg 47%
22:00 +14°C° 0 mm 3 m/s 765 mmHg 49%
23:00 +14°C° 0 mm 3 m/s 765 mmHg 51%
Voir plus

We Need Your Consent

Meteoprog and our Service Providers may store and access personal data such as cookies, device identifiers or other similar technologies on your device and process such data to personalise content and ads, as well as provide social media features and to analyse the traffic.

  • Store and/or access information on your device

    Cookies, device identifiers or other information can be stored or accessed on your device for the purposes indicated above.

  • Personalised ads and content, ad and content measurement, audience insights, and products development

    Ads and content can be personalised based on a profile. More data can be added to better personalise ads and content. Ad and content performance can be measured. Insights about the audience who saw the ads and content can be derived. Such data can be used to develop or improve user’s experience, systems and software.

By clicking ‘I Agree’ you will allow the use of indicated cookies, device identifiers, web beacons or other similar technologies. Your settings can be changed in the browser on your device.

For certain purposes, legitimate interests may be relied on, rather than consent. You can read more about this in our Privacy and Cookie Policy.